Lapse_Rate
7.3 6.5 6.5 6.5 6.5 6.5 6.5 6.5 6.5 6.5 6.5 6.5 6.5 6.5 6.5 6.9 7.1 7.1 7.6 7.9 8.1 8.3 8.9 9.1 9.0 9.1 9.2 9.3 9.3 9.3 9.4 9.1 9.2 7.8 7.7 9.2 9.7 9.8 9.3 9.9 9.8 6.5 3.3 4.4
6.5 6.5 6.5 6.5 6.5 6.5 6.5 6.5 6.5 6.5 6.5 6.5 6.5 6.5 6.5 6.5 6.7 7.2 7.5 7.8 8.0 8.4 8.7 8.9 9.1 9.0 9.0 8.8 9.0 9.1 9.2 9.2 9.5 10.7 8.4 8.1 10.0 10.3 9.6 9.9 9.8 9.5 4.2 2.8
6.5 6.5 6.5 6.5 6.5 6.5 6.5 6.5 6.5 6.5 6.5 6.5 6.5 6.5 6.5 6.5 6.9 7.6 7.8 8.1 8.2 7.9 8.0 8.4 8.5 8.7 9.2 9.0 8.9 9.1 9.2 9.4 9.6 9.1 8.5 7.5 10.2 10.0 9.8 10.0 9.8 9.6 7.9 3.5
6.5 6.6 6.5 6.5 6.5 6.5 6.5 6.5 6.5 6.5 6.5 6.5 6.5 6.5 6.5 6.5 6.5 6.5 7.4 7.8 7.9 8.2 8.4 8.2 7.8 7.6 8.3 8.5 8.8 6.0 9.1 9.4 9.5 8.1 6.4 6.8 9.5 9.9 9.3 9.5 9.9 10.1 9.4 5.3
6.5 6.5 6.5 6.5 6.5 6.5 6.5 6.5 6.5 6.5 6.5 6.5 6.5 6.5 6.5 6.5 6.5 6.5 6.8 7.5 7.7 8.0 8.2 8.2 7.9 7.1 7.4 7.8 7.3 6.1 6.5 8.6 6.2 3.5 3.3 7.6 7.7 9.8 9.8 9.9 9.4 9.6 9.3 9.1
6.5 7.2 6.5 6.5 6.5 6.5 6.5 6.5 6.5 6.5 6.5 6.5 6.5 6.5 6.5 6.5 6.5 6.5 6.9 7.5 7.7 7.8 8.0 8.6 8.5 7.5 6.9 7.1 7.0 5.8 6.4 6.5 4.3 3.2 4.7 8.3 6.8 8.5 7.6 9.1 9.4 9.4 8.5 9.0
6.5 6.5 6.5 6.8 6.5 6.5 6.5 6.5 6.5 6.5 6.5 6.5 6.5 6.5 6.5 6.5 6.5 6.5 6.5 7.2 7.8 7.9 7.9 8.0 7.9 6.6 6.3 6.7 6.8 6.3 7.0 5.6 2.5 3.2 2.0 2.3 7.0 7.2 7.8 5.0 7.0 7.2 6.1 6.7
6.5 6.5 6.5 6.5 6.5 6.5 6.5 6.5 6.5 6.5 6.5 6.5 6.5 6.5 6.5 6.5 7.0 7.3 7.6 7.1 7.9 7.9 7.8 7.5 6.8 6.8 6.5 6.8 6.5 7.1 6.9 5.5 2.3 3.7 2.4 1.5 1.2 3.2 3.9 2.1 3.6 5.1 6.0 6.2
6.5 6.5 6.5 6.5 6.5 6.5 6.5 6.5 6.5 6.5 6.5 6.5 6.5 6.5 6.5 6.5 6.5 6.9 7.1 7.6 7.4 7.4 7.5 7.0 6.9 6.9 6.7 6.2 5.3 6.6 6.9 5.8 2.7 2.8 2.5 2.2 1.9 3.2 3.6 2.5 2.8 2.7 2.8 4.1
6.5 6.5 6.5 6.5 6.7 6.6 6.5 6.5 6.5 6.5 6.5 6.5 6.5 6.5 6.5 6.5 6.5 6.5 6.6 6.9 7.3 7.4 7.5 7.1 6.9 7.0 6.7 5.8 6.6 7.0 7.2 5.4 3.0 2.3 3.0 2.7 1.5 1.7 1.3 1.1 0.6 1.2 1.6 2.3
6.5 6.5 6.5 6.5 6.5 6.5 6.5 6.5 6.5 6.5 6.5 6.5 6.5 6.5 6.5 6.5 6.5 6.5 6.6 7.1 7.3 7.3 7.1 7.0 6.8 6.9 6.7 6.7 6.1 6.9 7.7 5.2 3.4 3.9 4.1 2.2 2.5 1.4 -0.2 -1.2 -1.0 0.3 1.1 0.3
6.5 6.5 6.5 6.5 6.5 6.5 6.5 6.5 6.5 6.5 6.5 6.5 6.5 6.5 6.5 6.5 6.6 6.9 6.8 7.1 7.1 7.3 7.0 6.9 6.8 6.8 6.5 6.1 6.7 6.5 4.8 4.8 4.4 3.6 2.6 1.8 1.3 -2.1 -1.1 -0.5 -0.6 -0.4 0.4 0.4
6.5 6.5 6.5 6.5 6.5 6.5 6.5 6.5 6.5 6.5 6.5 6.5 6.5 6.5 6.5 6.7 6.7 7.1 6.9 7.1 7.1 7.1 7.0 7.0 7.0 6.8 6.8 6.7 6.2 6.4 6.4 2.7 0.9 4.7 4.0 2.6 1.6 2.1 1.3 0.3 -0.3 -0.7 -0.7 -0.4
6.7 6.5 6.5 6.5 6.5 6.5 6.5 6.5 6.5 6.5 6.5 6.5 6.5 6.5 6.5 6.5 6.5 6.8 7.2 7.2 7.3 7.2 7.2 7.1 7.1 7.0 6.8 6.5 6.5 6.8 6.8 6.5 6.6 7.0 7.6 5.2 3.4 2.9 1.8 1.5 0.7 -0.5 -0.9 -1.6
6.5 6.5 6.5 6.5 6.5 6.5 6.5 6.5 6.5 6.5 6.5 6.5 6.5 6.5 6.5 6.5 6.5 6.9 7.2 7.4 7.5 7.4 7.6 7.5 7.2 7.1 7.1 7.0 6.8 6.5 5.7 6.1 7.0 6.7 6.5 6.5 5.9 4.3 2.7 2.0 1.3 0.4 -0.2 -0.2
6.5 6.5 6.5 6.5 6.5 6.5 6.5 6.5 6.5 6.5 6.5 6.5 6.5 6.5 6.5 7.0 7.2 7.1 7.3 7.6 7.6 7.8 7.9 7.9 7.8 7.6 7.3 8.1 8.2 8.3 7.5 6.0 6.1 4.9 4.5 6.3 4.8 4.3 3.8 2.2 1.8 1.0 0.5 0.5
6.5 6.5 6.5 6.5 6.5 6.5 6.5 6.5 6.5 6.5 6.5 6.5 6.5 6.5 6.6 6.5 6.8 7.1 7.4 7.7 7.7 7.8 7.9 7.8 7.8 7.8 7.5 7.7 8.3 8.3 8.2 5.7 4.0 3.7 3.6 3.5 4.1 4.3 4.4 5.0 3.6 2.0 1.4 0.8
6.5 6.5 6.5 6.5 6.5 6.5 6.5 6.5 6.5 6.5 6.5 6.5 6.5 6.5 6.7 7.0 7.5 7.7 7.9 7.8 7.8 8.0 8.1 8.1 7.6 7.5 7.9 8.3 8.1 8.1 6.3 5.8 4.8 3.9 3.5 2.9 4.2 4.4 4.2 3.7 3.7 3.6 3.1 2.6
6.5 6.5 6.5 6.5 6.5 6.5 6.5 6.5 6.5 6.5 6.5 6.5 6.5 6.5 7.0 7.4 7.5 7.4 8.1 8.2 8.2 8.4 8.6 8.8 8.9 8.4 8.5 8.3 8.5 7.5 6.0 6.0 5.4 4.7 4.2 3.6 4.2 4.4 3.9 3.3 3.2 3.4 3.2 2.7
6.5 6.5 6.5 6.5 6.5 6.5 6.5 6.5 7.0 6.7 6.5 6.7 6.8 6.6 6.8 7.2 6.5 6.5 8.0 8.1 8.4 8.8 9.0 9.0 9.2 9.3 9.2 9.2 9.2 8.7 7.9 7.3 6.6 6.7 5.2 4.4 4.3 3.5 3.4 3.9 4.1 4.5 4.4 3.7
6.5 6.5 6.5 6.5 6.5 6.5 6.5 6.7 7.2 6.5 6.5 7.0 7.1 7.2 7.1 6.5 7.2 7.8 8.2 8.1 8.6 9.0 9.1 9.3 9.3 9.2 9.3 9.5 9.5 9.0 9.0 8.1 8.0 8.5 7.3 5.6 4.3 3.9 4.1 4.1 4.5 4.2 4.5 4.0
6.5 6.5 6.5 6.5 6.5 6.5 7.0 6.8 6.5 6.7 7.3 7.4 7.4 7.7 7.7 7.9 7.9 7.8 7.9 7.9 8.6 8.8 9.0 9.3 9.1 9.2 9.4 9.6 9.4 9.2 9.0 9.5 9.7 9.5 9.3 9.3 9.2 8.6 8.2 7.0 5.8 4.6 4.4 4.4
6.5 6.5 6.5 6.5 6.5 6.8 7.0 7.1 7.6 7.7 7.5 7.6 7.6 8.0 8.1 7.8 7.5 7.5 7.6 8.1 8.5 8.9 9.2 9.3 9.3 9.2 9.4 9.6 9.6 9.2 9.4 9.7 9.7 9.6 9.4 9.5 9.5 9.5 9.5 9.3 8.9 6.3 5.6 6.5
6.5 6.9 6.5 6.5 6.5 6.7 7.2 7.0 7.1 7.3 7.5 8.2 8.2 8.2 8.3 8.0 8.1 8.1 8.3 8.5 8.7 9.1 9.2 9.3 9.2 9.1 9.1 9.4 9.4 9.4 9.6 9.8 9.7 9.5 9.5 9.5 9.5 9.5 9.7 9.6 9.5 9.0 6.3 7.7
6.6 6.7 6.5 6.5 6.7 7.1 7.2 7.0 7.0 7.0 8.0 8.3 8.4 8.4 8.4 8.4 8.4 8.5 8.6 8.7 9.0 9.1 9.2 9.3 9.1 9.1 9.2 9.4 8.8 8.7 9.1 9.7 9.5 9.5 9.5 9.4 9.6 9.6 9.5 9.5 8.5 9.1 6.1 5.6
6.8 6.5 6.5 6.5 7.0 6.8 7.0 6.9 7.1 7.1 7.8 8.4 8.3 8.3 8.6 8.6 8.5 8.7 8.7 8.9 9.0 9.0 9.2 9.2 9.2 9.2 9.2 8.9 6.5 5.8 5.9 7.2 8.0 9.3 9.4 9.4 9.4 9.5 9.5 9.5 9.3 5.4 6.4 6.4
Wind_Speed
9 9 11 10 6 9 12 16 17 15 13 11 16 22 20 19 13 13 16 18 19 22 25 27 27 26 24 20 22 22 21 15 12 11 13 14 13 13 13 14 16 18 14 14
8 13 2 1 6 10 14 17 19 15 5 14 19 22 21 2 7 10 15 18 19 22 23 24 25 27 22 24 19 18 17 17 18 15 14 14 14 13 13 13 14 16 18 15
13 6 3 6 10 13 15 15 18 18 18 18 19 18 13 6 6 17 17 19 19 20 20 21 21 21 24 20 22 19 21 20 21 24 14 14 14 13 13 14 12 14 18 15
11 4 7 9 12 12 15 11 13 18 15 14 16 15 16 5 11 18 20 21 20 21 20 19 20 20 19 18 19 20 22 22 22 25 20 22 18 16 13 13 13 13 18 18
2 8 10 12 11 4 10 11 16 19 19 18 20 11 5 8 16 22 21 20 20 19 20 20 20 20 18 15 15 16 19 19 19 19 26 18 21 14 14 12 16 15 15 17
19 9 7 11 3 9 12 14 19 20 13 12 17 5 4 8 13 17 18 20 21 19 19 19 19 19 17 16 13 13 17 10 12 14 17 19 21 18 12 14 12 11 11 12
12 16 10 8 10 11 9 12 8 8 6 14 6 9 7 12 14 14 16 18 20 19 18 19 21 19 18 18 15 14 14 9 11 11 11 10 16 19 13 3 8 10 7 8
6 5 13 11 8 6 10 9 7 8 11 18 22 5 5 11 14 15 16 15 20 21 18 19 18 17 18 15 15 13 12 10 13 11 13 12 13 1 3 7 8 5 6 7
3 4 6 6 8 8 3 9 6 11 19 14 6 4 3 15 16 17 17 19 19 21 19 18 20 17 16 14 15 13 11 10 13 14 12 14 12 11 6 15 9 5 6 6
1 4 6 4 6 13 11 6 5 4 5 9 5 4 5 15 16 15 15 17 17 19 20 18 18 17 16 15 14 13 12 16 16 15 11 11 13 13 13 12 12 11 8 10
3 2 6 6 11 4 7 5 4 10 9 6 9 4 6 9 11 14 14 14 16 17 17 16 17 16 15 16 16 16 18 19 18 15 11 12 11 11 12 15 14 11 11 10
2 4 6 7 6 3 5 6 10 5 8 6 5 3 4 8 11 12 13 13 14 16 16 14 16 16 19 20 19 19 18 20 17 16 18 19 16 19 20 12 13 13 12 12
6 5 6 11 9 5 3 7 10 13 12 15 9 4 5 9 11 12 12 13 13 15 17 16 16 18 18 19 18 18 17 20 21 18 17 17 18 15 13 14 14 14 14 14
2 6 8 7 6 2 3 8 9 7 4 3 4 7 6 10 11 12 13 13 13 13 15 16 16 17 17 18 17 17 18 18 14 12 14 15 16 15 17 15 15 16 15 16
4 4 7 11 3 3 3 2 6 6 8 4 7 5 6 8 9 10 11 11 14 16 19 18 17 16 17 19 18 18 19 17 16 18 16 19 19 21 20 18 17 17 18 16
4 1 2 5 13 11 2 1 5 2 5 8 9 6 3 4 6 9 11 13 14 15 17 18 19 20 19 20 19 18 17 18 17 19 20 19 20 19 18 18 19 19 17 16
6 3 3 4 7 6 9 7 5 5 4 3 3 6 5 4 7 9 10 11 12 13 14 15 16 15 15 16 17 19 18 18 18 18 18 20 21 20 20 18 15 16 16 15
5 3 3 4 3 5 5 7 7 9 5 7 9 8 6 7 7 8 9 9 10 11 12 12 9 10 12 13 14 15 17 19 19 19 19 20 18 17 16 16 16 16 13 14
10 4 3 4 7 5 6 9 6 4 4 2 6 9 8 7 6 10 9 9 9 9 10 11 11 9 9 10 13 15 15 15 15 14 14 15 16 16 16 16 16 14 13 13
9 8 4 4 6 4 6 5 2 1 6 4 5 7 9 8 4 4 6 7 9 9 9 10 12 13 14 14 14 14 11 10 12 11 11 11 11 13 14 13 12 10 11 10
7 8 11 9 8 6 3 3 3 6 5 7 5 7 9 6 5 6 5 6 6 7 10 10 12 13 15 15 14 16 16 14 9 12 13 10 11 11 11 10 10 10 8 9
10 7 5 6 6 10 5 4 3 8 11 9 10 11 13 12 9 7 5 4 6 7 10 11 11 12 14 15 14 15 16 15 14 13 13 13 12 8 8 10 10 11 12 11
4 3 2 5 4 5 3 7 9 8 10 9 11 11 12 11 8 6 5 3 5 7 8 9 9 10 12 13 13 14 14 14 13 13 14 13 14 12 12 11 11 11 12 10
2 1 3 6 5 7 7 7 9 9 9 9 9 10 11 11 9 7 6 5 5 8 9 9 10 11 12 13 14 14 15 15 14 14 14 13 13 13 13 10 10 10 11 10
1 7 6 4 7 9 7 7 8 10 8 9 8 9 9 9 8 7 7 7 7 7 8 8 9 10 11 12 13 14 15 15 13 13 13 13 10 12 11 10 8 8 9 9
2 4 3 1 13 2 11 7 8 9 8 8 8 9 8 8 8 7 7 7 7 7 7 8 9 10 11 12 12 13 14 14 13 12 10 10 9 10 9 9 7 10 8 7
Wind_Direction
185 261 245 336 344 308 298 290 291 296 311 296 287 293 296 301 40 13 353 341 337 332 331 326 323 316 309 283 273 266 272 272 269 218 206 212 209 200 206 207 195 180 184 190
230 242 289 333 282 284 286 287 287 302 271 311 301 293 285 306 67 32 357 344 342 335 330 328 327 322 316 332 311 302 288 285 280 258 213 214 208 204 200 206 193 180 183 186
254 302 139 246 280 280 277 288 296 306 313 289 273 296 147 97 43 12 3 349 345 332 334 331 328 324 318 322 320 316 306 287 275 278 209 204 208 211 200 200 194 189 179 185
265 249 235 236 271 274 282 295 302 295 304 299 315 283 292 35 23 355 354 353 343 335 336 334 336 327 320 316 316 306 295 278 278 287 286 191 217 204 193 196 196 187 184 183
176 206 225 243 267 304 280 319 292 289 287 285 280 252 86 34 353 352 353 349 341 338 336 337 339 333 320 316 314 301 290 277 288 286 284 194 213 205 191 193 192 195 187 185
261 269 252 252 244 249 286 284 281 261 262 275 279 257 41 18 346 344 345 348 344 345 337 342 344 339 327 319 319 312 299 310 315 316 279 201 210 208 196 190 190 188 181 198
217 229 209 237 246 218 234 278 300 284 245 264 259 317 50 21 15 358 349 355 348 352 349 347 348 343 329 325 329 320 318 328 358 342 22 9 241 216 206 109 194 158 169 195
258 207 188 185 239 309 299 280 289 301 299 303 308 308 92 30 24 6 355 6 355 356 353 350 350 347 331 324 330 330 337 338 28 1 19 30 21 42 198 132 14 101 173 167
276 256 161 206 253 244 97 255 350 281 279 271 252 120 164 10 6 2 359 358 359 358 351 352 353 346 334 333 340 336 1 11 38 28 26 32 24 25 46 41 52 8 9 6
108 277 230 178 239 232 237 305 289 232 283 297 310 113 1 353 356 357 1 356 357 356 352 355 355 343 344 343 335 1 18 35 39 43 32 39 27 36 41 31 42 11 13 3
172 223 136 269 209 309 194 255 282 286 268 279 286 102 3 3 7 360 358 355 354 354 354 358 352 346 347 354 355 6 23 36 44 57 52 55 55 44 36 32 34 3 11 7
166 226 261 261 68 118 281 17 320 285 285 315 314 93 25 24 17 13 0 356 355 354 353 358 357 352 1 4 1 10 12 31 30 35 36 38 33 43 47 35 41 24 21 20
182 230 268 153 148 162 359 356 323 294 277 261 269 102 59 25 24 21 10 1 359 356 357 1 3 359 11 8 9 12 18 25 18 23 31 40 46 55 59 46 39 41 33 30
307 249 274 312 29 18 338 328 326 292 242 147 47 118 31 23 16 12 12 6 3 5 4 5 6 6 6 9 6 19 21 31 36 34 36 46 51 41 46 46 40 46 38 36
243 253 296 272 268 189 48 327 358 355 316 323 109 98 42 30 15 16 7 14 13 15 13 10 5 8 12 15 14 15 23 19 25 31 30 36 43 43 39 38 35 39 39 38
172 244 309 260 232 232 216 206 203 97 82 98 125 97 89 67 52 31 21 18 16 16 14 9 8 12 11 16 19 16 25 23 21 24 25 28 35 35 36 34 34 37 34 34
171 220 230 264 184 194 217 177 143 142 44 226 236 108 147 79 47 35 21 23 19 14 15 15 15 13 7 8 17 24 24 26 24 24 26 28 30 30 31 31 34 36 35 30
172 197 263 279 172 237 95 158 168 127 95 90 107 134 129 104 86 58 32 25 21 17 15 24 24 17 15 18 19 20 26 29 28 27 25 31 28 31 30 32 33 35 33 34
212 187 253 259 238 104 167 199 192 220 116 89 144 151 151 149 152 75 36 19 20 22 19 21 28 32 30 35 28 28 23 29 30 33 30 36 30 33 32 33 28 29 28 27
185 223 250 266 253 272 77 124 140 164 198 143 151 170 183 179 255 76 34 22 4 29 23 26 30 28 29 29 34 29 32 34 36 31 39 35 26 29 28 30 30 28 32 31
188 214 229 237 260 104 88 157 130 208 105 132 130 163 158 158 57 96 56 30 352 27 33 29 34 32 28 22 30 26 22 28 32 31 27 34 29 31 28 22 25 21 24 27
196 207 211 231 255 237 34 142 241 110 117 124 108 96 103 112 106 92 75 29 22 33 36 32 39 35 31 24 22 28 20 18 19 22 29 32 28 35 32 31 25 21 17 23
234 313 1 5 41 74 29 66 102 110 119 119 115 119 119 112 108 109 92 59 39 44 46 37 42 43 37 33 25 24 14 10 17 21 20 22 25 24 26 28 28 26 19 16
134 72 97 179 124 111 90 75 91 105 110 116 111 118 124 121 121 124 130 104 70 53 40 38 41 39 35 29 25 20 11 6 9 17 21 9 22 8 18 26 24 31 18 13
87 156 152 92 128 118 105 95 97 99 111 106 102 107 117 121 112 106 92 75 62 55 55 44 42 38 32 28 23 17 9 6 6 15 10 17 11 13 9 31 23 31 44 30
170 153 210 149 158 89 132 114 116 116 118 117 117 110 98 105 106 102 90 75 67 61 49 49 42 36 29 26 22 12 6 6 5 2 9 6 1 3 7 4 8 91 91 78